Retour au catalogue

COSMOS 2251 DEB

ActifLEO
NORAD 36061·DEBRIS·🇷🇺 Russia

Lancé Jun 16, 1993 depuis Plesetsk Cosmodrome

Loading…

Prochains Passages (prochaines 24 heures)

TLE

VieillissantSource: Space-Track

Époque: Sep 12, 2026, 03:48 UTC

1 36061U 93036AXY 26255.15886378  .00000403  00000-0  15223-3 0  9996
2 36061  74.0225 219.1124 0040051 242.9503 116.7560 14.34095905690239

Suivez COSMOS 2251 DEB en temps réel avec AllMySat

Download on the App Store